EW7007 Weather Reports


time (UTC)temp
F
wind
direction
speed
knots
gust
knots
rain 1hr
in
rain 24hr
in
rain mn
in
humidity
%
barometer
mb
20260831222410 94 172 0.0 4.3 0.00 0.00 0.00 49 1010.6
20260831221911 94 198 1.7 4.3 0.00 0.00 0.00 48 1010.6
20260831221412 95 206 1.7 4.3 0.00 0.00 0.00 48 1010.6
20260831215911 95 221 0.9 4.3 0.00 0.00 0.00 47 1010.7
20260831215410 94 221 0.9 5.2 0.00 0.00 0.00 46 1010.7
20260831214910 95 192 1.7 2.6 0.00 0.00 0.00 47 1010.7
20260831214412 95 189 0.0 0.9 0.00 0.00 0.00 47 1010.7
20260831213910 94 189 0.9 5.2 0.00 0.00 0.00 51 1010.7
20260831213411 95 210 0.9 5.2 0.00 0.00 0.00 51 1010.8
20260831212911 95 242 0.9 2.6 0.00 0.00 0.00 48 1010.9
20260831212411 94 242 0.0 2.6 0.00 0.00 0.00 49 1010.9
20260831211910 94 241 0.9 1.7 0.00 0.00 0.00 50 1010.9
20260831211412 94 241 0.9 4.3 0.00 0.00 0.00 50 1011.0
20260831210911 95 218 1.7 5.2 0.00 0.00 0.00 47 1011.0
20260831210410 96 234 0.0 1.7 0.00 0.00 0.00 48 1011.0
20260831205911 96 234 0.9 1.7 0.00 0.00 0.00 47 1011.1
20260831205411 95 234 1.7 2.6 0.00 0.00 0.00 49 1011.1
20260831204911 95 252 0.9 5.2 0.00 0.00 0.00 48 1011.1
20260831204411 94 257 0.9 2.6 0.00 0.00 0.00 49 1011.2
20260831203911 93 257 1.7 4.3 0.00 0.00 0.00 50 1011.2
20260831203411 94 203 0.9 2.6 0.00 0.00 0.00 49 1011.2
20260831202914 94 204 1.7 2.6 0.00 0.00 0.00 48 1011.2
20260831202411 94 194 1.7 5.2 0.00 0.00 0.00 47 1011.2
20260831201911 95 214 1.7 4.3 0.00 0.00 0.00 46 1011.2
20260831200911 95 195 0.9 2.6 0.00 0.00 0.00 45 1011.4
20260831200411 94 248 1.7 5.2 0.00 0.00 0.00 47 1011.4
20260831195913 93 232 0.9 2.6 0.00 0.00 0.00 49 1011.4
20260831195410 92 222 0.0 2.6 0.00 0.00 0.00 48 1011.5
20260831194911 93 234 2.6 4.3 0.00 0.00 0.00 49 1011.4
20260831194412 93 241 4.3 7.0 0.00 0.00 0.00 47 1011.5
20260831193911 94 214 1.7 6.1 0.00 0.00 0.00 48 1011.4
20260831193411 94 204 0.9 4.3 0.00 0.00 0.00 51 1011.5
20260831192914 93 230 1.7 4.3 0.00 0.00 0.00 51 1011.6
20260831191411 92 220 1.7 5.2 0.00 0.00 0.00 52 1011.5
20260831190910 92 215 1.7 4.3 0.00 0.00 0.00 52 1011.6
20260831190410 92 212 1.7 5.2 0.00 0.00 0.00 51 1011.6
20260831185911 93 264 1.7 5.2 0.00 0.00 0.00 50 1011.6
20260831185411 92 260 1.7 6.1 0.00 0.00 0.00 51 1011.6
20260831184910 92 235 0.9 6.1 0.00 0.00 0.00 51 1011.6
20260831184411 91 216 1.7 5.2 0.00 0.00 0.00 52 1011.6
20260831183911 91 206 0.9 2.6 0.00 0.00 0.00 52 1011.6
20260831182912 90 205 0.9 2.6 0.00 0.00 0.00 53 1011.7
20260831182411 91 206 0.9 2.6 0.00 0.00 0.00 53 1011.8
20260831181910 91 201 0.0 0.9 0.00 0.00 0.00 52 1011.7
20260831181413 91 201 0.0 1.7 0.00 0.00 0.00 53 1011.7
20260831180410 90 210 1.7 4.3 0.00 0.00 0.00 54 1011.7
20260831175911 89 190 0.0 1.7 0.00 0.00 0.00 54 1011.7
20260831175411 89 190 0.9 2.6 0.00 0.00 0.00 55 1011.7
20260831174910 89 187 0.9 4.3 0.00 0.00 0.00 54 1011.7
20260831174411 89 194 0.9 2.6 0.00 0.00 0.00 53 1011.7
20260831173911 89 207 1.7 2.6 0.00 0.00 0.00 54 1011.7
20260831173411 88 226 0.9 2.6 0.00 0.00 0.00 54 1011.7
20260831172411 88 329 0.0 0.9 0.00 0.00 0.00 54 1011.8
20260831171911 88 331 0.0 2.6 0.00 0.00 0.00 53 1011.8
20260831171410 89 333 0.0 2.6 0.00 0.00 0.00 55 1011.9
20260831170910 90 333 0.9 2.6 0.00 0.00 0.00 55 1011.7
20260831165913 88 333 0.0 2.6 0.00 0.00 0.00 58 1011.6
20260831164910 87 335 0.0 2.6 0.00 0.00 0.00 59 1011.6
20260831163911 86 335 0.0 1.7 0.00 0.00 0.00 61 1011.6
20260831163411 87 335 0.0 1.7 0.00 0.00 0.00 56 1011.5
20260831162911 86 335 0.0 1.7 0.00 0.00 0.00 57 1011.4
20260831162410 87 335 0.0 2.6 0.00 0.00 0.00 58 1011.3
20260831161911 85 335 0.0 1.7 0.00 0.00 0.00 61 1011.2
20260831160911 85 335 0.0 1.7 0.00 0.00 0.00 60 1011.2
20260831160410 85 335 0.0 0.0 0.00 0.00 0.00 61 1011.2
20260831155911 84 335 0.0 0.0 0.00 0.00 0.00 61 1011.1
20260831155410 83 335 0.0 0.9 0.00 0.00 0.00 64 1011.1
20260831154911 83 335 0.0 0.9 0.00 0.00 0.00 63 1011.0
20260831154413 82 335 0.0 0.0 0.00 0.00 0.00 68 1010.9
20260831153910 81 335 0.0 0.0 0.00 0.00 0.00 67 1010.8
20260831152410 79 335 0.0 0.0 0.00 0.00 0.00 70 1010.7
20260831151911 79 335 0.0 0.0 0.00 0.00 0.00 71 1010.7
20260831151411 79 335 0.0 0.0 0.00 0.00 0.00 71 1010.6
20260831150910 79 335 0.0 0.0 0.00 0.00 0.00 72 1010.3
20260831145912 78 335 0.0 0.0 0.00 0.00 0.00 73 1010.4
20260831145411 78 335 0.0 0.0 0.00 0.00 0.00 74 1010.3
20260831144412 78 335 0.0 0.9 0.00 0.00 0.00 74 1010.7
20260831143911 78 335 0.0 0.9 0.00 0.00 0.00 74 1010.8
20260831143411 78 335 0.0 0.0 0.00 0.00 0.00 76 1010.4
20260831142913 77 335 0.0 0.0 0.00 0.00 0.00 77 1010.4
20260831142411 77 335 0.0 0.0 0.00 0.00 0.00 79 1010.4
20260831141910 77 335 0.0 0.0 0.00 0.00 0.00 79 1010.3
20260831141411 77 335 0.0 0.0 0.00 0.00 0.00 79 1010.3
20260831140910 76 335 0.0 0.0 0.00 0.00 0.00 80 1010.2
20260831135910 77 335 0.0 0.0 0.00 0.00 0.00 78 1010.2
20260831135411 77 335 0.0 0.0 0.00 0.00 0.00 76 1010.0
20260831134911 77 335 0.0 0.0 0.00 0.00 0.00 76 1009.9
20260831134410 77 335 0.0 0.0 0.00 0.00 0.00 76 1010.1
20260831132912 77 335 0.9 2.6 0.00 0.00 0.00 75 1010.0
20260831132410 77 335 0.0 1.7 0.00 0.00 0.00 76 1010.0
20260831131911 77 333 0.9 1.7 0.00 0.00 0.00 76 1009.9
20260831131411 77 328 0.9 2.6 0.00 0.00 0.00 76 1010.0
20260831130911 77 325 1.7 4.3 0.00 0.00 0.00 76 1009.9
20260831130410 77 296 1.7 4.3 0.00 0.00 0.00 77 1009.9
20260831125910 77 309 1.7 2.6 0.00 0.00 0.00 77 1010.0
20260831124911 77 296 1.7 7.8 0.00 0.00 0.00 78 1010.3
20260831124412 77 283 2.6 8.7 0.00 0.00 0.00 79 1010.4
20260831123911 77 287 2.6 10.4 0.00 0.00 0.00 80 1010.3
20260831122910 76 266 1.7 7.8 0.00 0.00 0.00 82 1010.3
20260831122411 76 264 1.7 5.2 0.00 0.00 0.00 83 1010.1
20260831121416 76 256 2.6 7.8 0.00 0.00 0.00 85 1010.3
20260831120910 76 254 4.3 7.0 0.00 0.00 0.00 86 1010.3
20260831120410 76 234 1.7 5.2 0.00 0.00 0.00 86 1010.1
20260831115916 76 208 0.9 5.2 0.00 0.00 0.00 87 1009.9
20260831115410 76 199 0.9 4.3 0.00 0.00 0.00 87 1009.9
20260831114910 75 198 0.9 4.3 0.00 0.00 0.00 87 1010.0
20260831114414 75 223 1.7 5.2 0.00 0.00 0.00 87 1009.9
20260831113910 75 207 0.9 2.6 0.00 0.00 0.00 87 1009.8
20260831113410 75 233 0.0 0.9 0.00 0.00 0.00 87 1009.5
20260831112913 75 233 0.9 1.7 0.00 0.00 0.00 87 1009.3
20260831112411 75 233 0.9 2.6 0.00 0.00 0.00 88 1009.1
20260831111413 75 233 0.0 0.0 0.00 0.00 0.00 88 1009.1
20260831110910 75 233 0.0 0.9 0.00 0.00 0.00 88 1008.9
20260831110410 75 233 0.0 0.9 0.00 0.00 0.00 88 1008.8
20260831105916 75 233 0.0 0.9 0.00 0.00 0.00 88 1008.7
20260831104911 75 223 0.0 0.0 0.00 0.00 0.00 88 1008.4
20260831104412 75 223 0.0 0.0 0.00 0.00 0.00 88 1008.3
20260831103410 75 223 0.0 0.0 0.00 0.00 0.00 88 1008.5
20260831102916 75 223 0.9 1.7 0.00 0.00 0.00 88 1008.5
20260831102410 75 223 0.0 0.0 0.00 0.00 0.00 88 1008.2
20260831100910 75 223 0.0 0.0 0.00 0.00 0.00 88 1008.2
20260831100410 75 223 0.0 0.0 0.00 0.00 0.00 88 1008.3
20260831095411 75 223 0.9 1.7 0.00 0.00 0.00 89 1008.3
20260831094910 75 223 0.0 0.9 0.00 0.00 0.00 89 1008.1
20260831094413 75 223 0.0 0.0 0.00 0.00 0.00 89 1008.0
20260831093410 75 223 0.0 0.0 0.00 0.00 0.00 90 1008.0
20260831092916 75 223 0.0 1.7 0.00 0.00 0.00 90 1007.8
20260831091910 74 223 0.0 0.9 0.00 0.00 0.00 90 1007.7
20260831091413 74 223 0.0 0.9 0.00 0.00 0.00 90 1007.6
20260831090911 75 223 0.0 0.0 0.00 0.00 0.00 90 1007.5
20260831090411 75 223 0.0 1.7 0.00 0.00 0.00 90 1007.5
20260831085913 75 223 0.0 2.6 0.00 0.00 0.00 90 1007.5
20260831085410 75 223 0.0 0.0 0.00 0.00 0.00 90 1007.5
20260831084910 75 223 0.0 0.0 0.00 0.00 0.00 90 1007.4
20260831084413 75 223 0.0 0.0 0.00 0.00 0.00 90 1007.4
20260831083911 75 223 0.0 0.0 0.00 0.00 0.00 90 1007.4
20260831083410 75 223 0.0 0.0 0.00 0.00 0.00 89 1007.3
20260831082912 75 223 0.0 0.0 0.00 0.00 0.00 89 1007.3
20260831081910 75 223 0.0 0.0 0.00 0.00 0.00 89 1007.4
20260831081414 75 223 0.0 0.0 0.00 0.00 0.00 89 1007.2
20260831080410 75 223 0.0 0.0 0.00 0.00 0.00 89 1007.2
20260831075913 76 223 0.0 0.0 0.00 0.00 0.00 89 1007.3
20260831074910 76 223 0.0 0.0 0.00 0.00 0.00 88 1007.3
20260831074412 76 223 0.0 0.0 0.00 0.00 0.00 88 1007.3
20260831073411 76 223 0.0 0.0 0.00 0.00 0.00 88 1007.3
20260831072913 76 223 0.0 0.0 0.00 0.00 0.00 88 1007.3
20260831072410 76 223 0.0 0.0 0.00 0.00 0.00 88 1007.4
20260831071413 76 223 0.0 0.0 0.00 0.00 0.00 88 1007.5
20260831070911 76 223 0.0 0.0 0.00 0.00 0.00 87 1007.6
20260831070411 76 223 0.0 0.0 0.00 0.00 0.00 87 1007.6
20260831065913 76 223 0.0 0.0 0.00 0.00 0.00 87 1007.6
20260831065410 76 223 0.0 0.0 0.00 0.00 0.00 87 1007.6
20260831064910 76 223 0.0 0.0 0.00 0.00 0.00 87 1007.6
20260831064415 77 223 0.0 0.0 0.00 0.00 0.00 86 1007.6
20260831063910 77 223 0.0 0.0 0.00 0.00 0.00 85 1007.6
20260831063410 77 223 0.0 0.0 0.00 0.00 0.00 85 1007.5
20260831062913 77 223 0.0 0.0 0.00 0.00 0.00 85 1007.5
20260831062411 77 223 0.0 0.0 0.00 0.00 0.00 85 1007.3
20260831061911 77 223 0.0 0.0 0.00 0.00 0.00 84 1007.3
20260831061415 77 223 0.0 0.0 0.00 0.00 0.00 84 1007.2
20260831060910 78 223 0.0 0.0 0.00 0.00 0.00 84 1007.2
20260831060410 78 223 0.0 0.0 0.00 0.00 0.00 84 1007.2
20260831055912 78 223 0.0 0.0 0.00 0.00 0.00 84 1007.1
20260831055410 78 223 0.0 0.0 0.00 0.00 0.00 84 1007.1
20260831054910 78 223 0.0 0.0 0.00 0.00 0.00 83 1007.2
20260831053910 78 223 0.0 0.0 0.00 0.00 0.00 83 1006.8
20260831052911 78 223 0.0 0.0 0.00 0.00 0.00 83 1006.7
20260831052410 78 223 0.0 0.0 0.00 0.00 0.00 83 1006.8
20260831051910 78 223 0.0 0.9 0.00 0.00 0.00 83 1006.8
20260831051412 78 223 0.0 0.0 0.00 0.00 0.00 83 1006.8
20260831050910 78 223 0.0 0.0 0.00 0.00 0.00 83 1006.9
20260831050410 78 223 0.0 0.9 0.00 0.00 0.00 83 1006.8
20260831045915 78 223 0.0 0.9 0.00 0.00 0.00 83 1006.8
20260831045410 79 223 0.0 0.0 0.00 0.00 0.00 82 1006.7
20260831044910 79 223 0.0 0.0 0.00 0.00 0.00 82 1006.7
20260831044413 79 223 0.0 0.0 0.00 0.00 0.00 82 1006.7
20260831043910 79 223 0.0 0.0 0.00 0.00 0.00 82 1006.8
20260831042913 79 223 0.0 0.0 0.00 0.00 0.00 82 1006.7
20260831042410 79 223 0.0 0.0 0.00 0.00 0.00 82 1006.7
20260831041910 80 223 0.0 0.0 0.00 0.00 0.00 81 1006.7
20260831040910 80 223 0.0 0.0 0.00 0.00 0.00 81 1006.8
20260831040410 80 223 0.0 0.0 0.00 0.00 0.00 81 1006.8
20260831035911 80 223 0.0 0.0 0.00 0.00 0.00 81 1006.8
20260831035410 80 223 0.0 0.0 0.00 0.00 0.00 81 1006.9
20260831034412 80 223 0.0 0.0 0.00 0.00 0.00 80 1006.8
20260831033910 81 223 0.0 0.0 0.00 0.00 0.00 80 1006.8
20260831033410 81 223 0.0 0.0 0.00 0.00 0.00 80 1006.9
20260831032914 81 223 0.0 0.0 0.00 0.00 0.00 80 1006.9
20260831032410 81 223 0.0 0.0 0.00 0.00 0.00 80 1006.9
20260831031910 81 223 0.0 0.0 0.00 0.00 0.00 80 1006.8
20260831031414 81 223 0.0 0.0 0.00 0.00 0.00 80 1006.8
20260831030410 81 223 0.0 0.9 0.00 0.00 0.00 80 1006.9
20260831025914 82 223 0.0 0.0 0.00 0.00 0.00 80 1007.0
20260831025410 82 223 0.0 0.0 0.00 0.00 0.00 79 1006.9
20260831024910 82 223 0.0 1.7 0.00 0.00 0.00 79 1007.0
20260831024415 82 223 0.0 0.0 0.00 0.00 0.00 78 1007.0
20260831023910 82 223 0.0 0.0 0.00 0.00 0.00 77 1007.0
20260831023410 83 223 0.0 0.0 0.00 0.00 0.00 77 1006.9
20260831022409 83 223 0.0 0.0 0.00 0.00 0.00 76 1006.7
20260831021909 83 223 0.0 0.0 0.00 0.00 0.00 76 1006.6
20260831020910 84 223 0.0 0.0 0.00 0.00 0.00 74 1006.7
20260831020410 84 223 0.0 0.0 0.00 0.00 0.00 73 1006.6
20260831015911 84 223 0.0 0.0 0.00 0.00 0.00 72 1006.6
20260831015410 85 223 0.0 0.0 0.00 0.00 0.00 71 1006.5
20260831014412 85 223 0.0 0.0 0.00 0.00 0.00 70 1006.5
20260831013910 86 223 0.0 0.0 0.00 0.00 0.00 69 1006.5
20260831013410 86 223 0.0 0.0 0.00 0.00 0.00 68 1006.4
20260831012913 87 223 0.0 0.0 0.00 0.00 0.00 68 1006.3
20260831012410 87 223 0.0 0.0 0.00 0.00 0.00 67 1006.1
20260831011910 87 223 0.0 0.0 0.00 0.00 0.00 67 1006.1
20260831011412 88 223 0.0 0.0 0.00 0.00 0.00 66 1006.1
20260831010910 88 223 0.0 0.0 0.00 0.00 0.00 65 1006.1
20260831010410 89 223 0.0 0.0 0.00 0.00 0.00 65 1006.1
20260831005910 89 223 0.0 0.0 0.00 0.00 0.00 63 1006.1
20260831004410 91 223 0.0 0.0 0.00 0.00 0.00 61 1006.0
20260831003910 91 223 0.0 0.0 0.00 0.00 0.00 60 1006.1
20260831003410 92 223 0.0 0.0 0.00 0.00 0.00 59 1006.1
20260831002912 92 223 0.0 0.0 0.00 0.00 0.00 60 1006.1
20260831002410 92 223 0.0 0.0 0.00 0.00 0.00 59 1006.1
20260831001910 93 223 0.0 0.0 0.00 0.00 0.00 58 1006.1
20260831001410 93 223 0.0 0.0 0.00 0.00 0.00 55 1006.1
20260831000910 93 223 0.0 0.0 0.00 0.00 0.00 58 1006.0
20260831000410 93 223 0.0 0.9 0.00 0.00 0.00 56 1006.0
20260830235914 93 223 0.0 0.0 0.00 0.00 0.00 54 1006.0
20260830235410 94 223 0.0 0.0 0.00 0.00 0.00 53 1006.0
20260830234910 94 223 0.0 0.0 0.00 0.00 0.00 53 1006.1
20260830234410 93 223 0.0 0.0 0.00 0.00 0.00 53 1006.0
20260830233910 93 223 0.0 0.9 0.00 0.00 0.00 53 1006.1
20260830233410 93 223 0.0 0.0 0.00 0.00 0.00 53 1006.1
20260830232911 94 223 0.0 0.9 0.00 0.00 0.00 52 1006.1
20260830232410 94 223 0.0 0.9 0.00 0.00 0.00 51 1006.1
20260830231910 94 223 0.0 0.9 0.00 0.00 0.00 52 1006.1
20260830230910 94 223 0.0 0.0 0.00 0.00 0.00 50 1006.1
20260830225910 93 223 0.0 1.7 0.00 0.00 0.00 50 1006.0
20260830225410 93 223 0.0 0.9 0.00 0.00 0.00 49 1006.0
20260830224909 93 223 0.0 1.7 0.00 0.00 0.00 49 1005.9
20260830224410 94 223 0.9 2.6 0.00 0.00 0.00 49 1005.9
20260830223910 93 223 0.9 2.6 0.00 0.00 0.00 49 1005.9
20260830223409 93 223 0.9 2.6 0.00 0.00 0.00 49 1005.9
20260830222910 93 225 0.9 1.7 0.00 0.00 0.00 50 1005.9